Year,Month,Day,Hour,Minute,Value (Times are PST for temperature in C)
2023,03,30,00,00,6.30
2023,03,30,00,01,6.30
2023,03,30,00,02,6.40
2023,03,30,00,03,6.40
2023,03,30,00,04,6.40
2023,03,30,00,05,6.40
2023,03,30,00,06,6.40
2023,03,30,00,07,6.40
2023,03,30,00,08,6.40
2023,03,30,00,09,6.40
2023,03,30,00,10,6.40
2023,03,30,00,11,6.40
2023,03,30,00,12,6.50
2023,03,30,00,13,6.50
2023,03,30,00,14,6.50
2023,03,30,00,15,6.50
2023,03,30,00,16,6.50
2023,03,30,00,17,6.50
2023,03,30,00,18,6.60
2023,03,30,00,19,6.50
2023,03,30,00,20,6.50
2023,03,30,00,21,6.60
2023,03,30,00,22,6.50
2023,03,30,00,23,6.50
2023,03,30,00,24,6.50
2023,03,30,00,25,6.50
2023,03,30,00,26,6.50
2023,03,30,00,27,6.50
2023,03,30,00,28,6.50
2023,03,30,00,29,6.50
2023,03,30,00,30,6.50
2023,03,30,00,31,6.50
2023,03,30,00,32,6.50
2023,03,30,00,33,6.50
2023,03,30,00,34,6.50
2023,03,30,00,35,6.50
2023,03,30,00,36,6.50
2023,03,30,00,37,6.50
2023,03,30,00,38,6.50
2023,03,30,00,39,6.50
2023,03,30,00,40,6.50
2023,03,30,00,41,6.50
2023,03,30,00,42,6.50
2023,03,30,00,43,6.50
2023,03,30,00,44,6.50
2023,03,30,00,45,6.50
2023,03,30,00,46,6.40
2023,03,30,00,47,6.40
2023,03,30,00,48,6.40
2023,03,30,00,49,6.40
2023,03,30,00,50,6.40
2023,03,30,00,51,6.40
2023,03,30,00,52,6.30
2023,03,30,00,53,6.30
2023,03,30,00,54,6.30
2023,03,30,00,55,6.30
2023,03,30,00,56,6.20
2023,03,30,00,57,6.20
2023,03,30,00,58,6.20
2023,03,30,00,59,6.20
2023,03,30,01,00,6.20
2023,03,30,01,01,6.20
2023,03,30,01,02,6.10
2023,03,30,01,03,6.10
2023,03,30,01,04,6.10
2023,03,30,01,05,6.10
2023,03,30,01,06,6.10
2023,03,30,01,07,6.10
2023,03,30,01,08,6.10
2023,03,30,01,09,6.10
2023,03,30,01,10,6.10
2023,03,30,01,11,6.00
2023,03,30,01,12,6.10
2023,03,30,01,13,6.00
2023,03,30,01,14,6.00
2023,03,30,01,15,6.00
2023,03,30,01,16,6.00
2023,03,30,01,17,6.00
2023,03,30,01,18,6.00
2023,03,30,01,19,6.00
2023,03,30,01,20,5.90
2023,03,30,01,21,5.90
2023,03,30,01,22,5.90
2023,03,30,01,23,5.90
2023,03,30,01,24,5.90
2023,03,30,01,25,5.90
2023,03,30,01,26,5.90
2023,03,30,01,27,5.90
2023,03,30,01,28,5.80
2023,03,30,01,29,5.80
2023,03,30,01,30,5.80
2023,03,30,01,31,5.80
2023,03,30,01,32,5.80
2023,03,30,01,33,5.80
2023,03,30,01,34,5.80
2023,03,30,01,35,5.80
2023,03,30,01,36,5.80
2023,03,30,01,37,5.80
2023,03,30,01,38,5.80
2023,03,30,01,39,5.80
2023,03,30,01,40,5.80
2023,03,30,01,41,5.80
2023,03,30,01,42,5.80
2023,03,30,01,43,5.80
2023,03,30,01,44,5.80
2023,03,30,01,45,5.80
2023,03,30,01,46,5.80
2023,03,30,01,47,5.80
2023,03,30,01,48,5.80
2023,03,30,01,49,5.80
2023,03,30,01,50,5.80
2023,03,30,01,51,5.80
2023,03,30,01,52,5.80
2023,03,30,01,53,5.80
2023,03,30,01,54,5.80
2023,03,30,01,55,5.90
2023,03,30,01,56,5.90
2023,03,30,01,57,5.90
2023,03,30,01,58,5.90
2023,03,30,01,59,5.90
2023,03,30,02,00,5.90
2023,03,30,02,01,5.90
2023,03,30,02,02,5.90
2023,03,30,02,03,5.90
2023,03,30,02,04,5.90
2023,03,30,02,05,5.90
2023,03,30,02,06,5.90
2023,03,30,02,07,5.90
2023,03,30,02,08,5.90
2023,03,30,02,09,5.90
2023,03,30,02,10,5.90
2023,03,30,02,11,5.90
2023,03,30,02,12,5.90
2023,03,30,02,13,5.80
2023,03,30,02,14,5.80
2023,03,30,02,15,5.80
2023,03,30,02,16,5.80
2023,03,30,02,17,5.80
2023,03,30,02,18,5.80
2023,03,30,02,19,5.70
2023,03,30,02,20,5.70
2023,03,30,02,21,5.70
2023,03,30,02,22,5.70
2023,03,30,02,23,5.70
2023,03,30,02,24,5.60
2023,03,30,02,25,5.60
2023,03,30,02,26,5.60
2023,03,30,02,27,5.60
2023,03,30,02,28,5.50
2023,03,30,02,29,5.50
2023,03,30,02,30,5.50
2023,03,30,02,31,5.50
2023,03,30,02,32,5.50
2023,03,30,02,33,5.50
2023,03,30,02,34,5.40
2023,03,30,02,35,5.40
2023,03,30,02,36,5.40
2023,03,30,02,37,5.40
2023,03,30,02,38,5.40
2023,03,30,02,39,5.40
2023,03,30,02,40,5.40
2023,03,30,02,41,5.40
2023,03,30,02,42,5.40
2023,03,30,02,43,5.40
2023,03,30,02,44,5.40
2023,03,30,02,45,5.40
2023,03,30,02,46,5.40
2023,03,30,02,47,5.40
2023,03,30,02,48,5.40
2023,03,30,02,49,5.40
2023,03,30,02,50,5.30
2023,03,30,02,51,5.30
2023,03,30,02,52,5.30
2023,03,30,02,53,5.30
2023,03,30,02,54,5.30
2023,03,30,02,55,5.30
2023,03,30,02,56,5.30
2023,03,30,02,57,5.20
2023,03,30,02,58,5.20
2023,03,30,02,59,5.20
2023,03,30,03,00,5.20
2023,03,30,03,01,5.10
2023,03,30,03,02,5.10
2023,03,30,03,03,5.10
2023,03,30,03,04,5.10
2023,03,30,03,05,5.00
2023,03,30,03,06,5.00
2023,03,30,03,07,5.00
2023,03,30,03,08,5.00
2023,03,30,03,09,5.00
2023,03,30,03,10,5.00
2023,03,30,03,11,5.00
2023,03,30,03,12,5.00
2023,03,30,03,13,5.00
2023,03,30,03,14,5.10
2023,03,30,03,15,5.10
2023,03,30,03,16,5.10
2023,03,30,03,17,5.20
2023,03,30,03,18,5.20
2023,03,30,03,19,5.20
2023,03,30,03,20,5.30
2023,03,30,03,21,5.30
2023,03,30,03,22,5.30
2023,03,30,03,23,5.40
2023,03,30,03,24,5.40
2023,03,30,03,25,5.40
2023,03,30,03,26,5.40
2023,03,30,03,27,5.40
2023,03,30,03,28,5.50
2023,03,30,03,29,5.50
2023,03,30,03,30,5.50
2023,03,30,03,31,5.50
2023,03,30,03,32,5.50
2023,03,30,03,33,5.50
2023,03,30,03,34,5.50
2023,03,30,03,35,5.50
2023,03,30,03,36,5.50
2023,03,30,03,37,5.50
2023,03,30,03,38,5.50
2023,03,30,03,39,5.50
2023,03,30,03,40,5.50
2023,03,30,03,41,5.50
2023,03,30,03,42,5.50
2023,03,30,03,43,5.50
2023,03,30,03,44,5.50
2023,03,30,03,45,5.60
2023,03,30,03,46,5.60
2023,03,30,03,47,5.60
2023,03,30,03,48,5.60
2023,03,30,03,49,5.70
2023,03,30,03,50,5.70
2023,03,30,03,51,5.70
2023,03,30,03,52,5.70
2023,03,30,03,53,5.70
2023,03,30,03,54,5.70
2023,03,30,03,55,5.70
2023,03,30,03,56,5.70
2023,03,30,03,57,5.70
2023,03,30,03,58,5.70
2023,03,30,03,59,5.70
2023,03,30,04,00,5.70
2023,03,30,04,01,5.70
2023,03,30,04,02,5.70
2023,03,30,04,03,5.70
2023,03,30,04,04,5.70
2023,03,30,04,05,5.70
2023,03,30,04,06,5.70
2023,03,30,04,07,5.70
2023,03,30,04,08,5.70
2023,03,30,04,09,5.70
2023,03,30,04,10,5.60
2023,03,30,04,11,5.60
2023,03,30,04,12,5.60
2023,03,30,04,13,5.60
2023,03,30,04,14,5.60
2023,03,30,04,15,5.60
2023,03,30,04,16,5.50
2023,03,30,04,17,5.50
2023,03,30,04,18,5.50
2023,03,30,04,19,5.40
2023,03,30,04,20,5.40
2023,03,30,04,21,5.40
2023,03,30,04,22,5.40
2023,03,30,04,23,5.40
2023,03,30,04,24,5.40
2023,03,30,04,25,5.30
2023,03,30,04,26,5.30
2023,03,30,04,27,5.30
2023,03,30,04,28,5.20
2023,03,30,04,29,5.20
2023,03,30,04,30,5.20
2023,03,30,04,31,5.20
2023,03,30,04,32,5.10
2023,03,30,04,33,5.10
2023,03,30,04,34,5.10
2023,03,30,04,35,5.10
2023,03,30,04,36,5.00
2023,03,30,04,37,5.00
2023,03,30,04,38,5.00
2023,03,30,04,39,4.90
2023,03,30,04,40,4.90
2023,03,30,04,41,4.90
2023,03,30,04,42,4.90
2023,03,30,04,43,4.80
2023,03,30,04,44,4.80
2023,03,30,04,45,4.80
2023,03,30,04,46,4.80
2023,03,30,04,47,4.70
2023,03,30,04,48,4.70
2023,03,30,04,49,4.70
2023,03,30,04,50,4.60
2023,03,30,04,51,4.60
2023,03,30,04,52,4.60
2023,03,30,04,53,4.50
2023,03,30,04,54,4.40
2023,03,30,04,55,4.40
2023,03,30,04,56,4.40
2023,03,30,04,57,4.30
2023,03,30,04,58,4.30
2023,03,30,04,59,4.30
2023,03,30,05,00,4.30
2023,03,30,05,01,4.30
2023,03,30,05,02,4.30
2023,03,30,05,03,4.20
2023,03,30,05,04,4.20
2023,03,30,05,05,4.20
2023,03,30,05,06,4.20
2023,03,30,05,07,4.10
2023,03,30,05,08,4.10
2023,03,30,05,09,4.10
2023,03,30,05,10,4.10
2023,03,30,05,11,4.10
2023,03,30,05,12,4.10
2023,03,30,05,13,4.00
2023,03,30,05,14,4.00
2023,03,30,05,15,4.00
2023,03,30,05,16,3.90
2023,03,30,05,17,3.90
2023,03,30,05,18,3.90
2023,03,30,05,19,3.90
2023,03,30,05,20,3.80
2023,03,30,05,21,3.80
2023,03,30,05,22,3.80
2023,03,30,05,23,3.70
2023,03,30,05,24,3.70
2023,03,30,05,25,3.70
2023,03,30,05,26,3.60
2023,03,30,05,27,3.60
2023,03,30,05,28,3.50
2023,03,30,05,29,3.50
2023,03,30,05,30,3.40
2023,03,30,05,31,3.40
2023,03,30,05,32,3.40
2023,03,30,05,33,3.30
2023,03,30,05,34,3.30
2023,03,30,05,35,3.30
2023,03,30,05,36,3.20
2023,03,30,05,37,3.20
2023,03,30,05,38,3.20
2023,03,30,05,39,3.20
2023,03,30,05,40,3.10
2023,03,30,05,41,3.10
2023,03,30,05,42,3.10
2023,03,30,05,43,3.10
2023,03,30,05,44,3.00
2023,03,30,05,45,3.00
2023,03,30,05,46,3.00
2023,03,30,05,47,2.90
2023,03,30,05,48,2.90
2023,03,30,05,49,2.90
2023,03,30,05,50,2.80
2023,03,30,05,51,2.80
2023,03,30,05,52,2.80
2023,03,30,05,53,2.80
2023,03,30,05,54,2.70
2023,03,30,05,55,2.70
2023,03,30,05,56,2.70
2023,03,30,05,57,2.70
2023,03,30,05,58,2.60
2023,03,30,05,59,2.60
2023,03,30,06,00,2.60
2023,03,30,06,01,2.60
2023,03,30,06,02,2.50
2023,03,30,06,03,2.50
2023,03,30,06,04,2.50
2023,03,30,06,05,2.40
2023,03,30,06,06,2.40
2023,03,30,06,07,2.40
2023,03,30,06,08,2.40
2023,03,30,06,09,2.30
2023,03,30,06,10,2.30
2023,03,30,06,11,2.30
2023,03,30,06,12,2.30
2023,03,30,06,13,2.20
2023,03,30,06,14,2.20
2023,03,30,06,15,2.20
2023,03,30,06,16,2.20
2023,03,30,06,17,2.10
2023,03,30,06,18,2.10
2023,03,30,06,19,2.10
2023,03,30,06,20,2.00
2023,03,30,06,21,2.00
2023,03,30,06,22,1.90
2023,03,30,06,23,1.90
2023,03,30,06,24,1.90
2023,03,30,06,25,1.90
2023,03,30,06,26,1.80
2023,03,30,06,27,1.80
2023,03,30,06,28,1.80
2023,03,30,06,29,1.80
2023,03,30,06,30,1.70
2023,03,30,06,31,1.70
2023,03,30,06,32,1.70
2023,03,30,06,33,1.60
2023,03,30,06,34,1.60
2023,03,30,06,35,1.60
2023,03,30,06,36,1.50
2023,03,30,06,37,1.50
2023,03,30,06,38,1.50
2023,03,30,06,39,1.40
2023,03,30,06,40,1.40
2023,03,30,06,41,1.40
2023,03,30,06,42,1.30
2023,03,30,06,43,1.30
2023,03,30,06,44,1.30
2023,03,30,06,45,1.30
2023,03,30,06,46,1.30
2023,03,30,06,47,1.20
2023,03,30,06,48,1.20
2023,03,30,06,49,1.20
2023,03,30,06,50,1.10
2023,03,30,06,51,1.10
2023,03,30,06,52,1.10
2023,03,30,06,53,1.10
2023,03,30,06,54,1.00
2023,03,30,06,55,1.00
2023,03,30,06,56,1.00
2023,03,30,06,57,1.00
2023,03,30,06,58,1.00
2023,03,30,06,59,1.00
2023,03,30,07,00,0.90
2023,03,30,07,01,1.00
2023,03,30,07,02,1.00
2023,03,30,07,03,0.90
2023,03,30,07,04,0.90
2023,03,30,07,05,0.90
2023,03,30,07,06,0.90
2023,03,30,07,07,0.90
2023,03,30,07,08,0.90
2023,03,30,07,09,0.90
2023,03,30,07,10,0.90
2023,03,30,07,11,0.90
2023,03,30,07,12,0.90
2023,03,30,07,13,0.90
2023,03,30,07,14,0.90
2023,03,30,07,15,0.90
2023,03,30,07,16,0.90
2023,03,30,07,17,0.90
2023,03,30,07,18,1.00
2023,03,30,07,19,1.00
2023,03,30,07,20,1.00
2023,03,30,07,21,1.00
2023,03,30,07,22,1.00
2023,03,30,07,23,1.00
2023,03,30,07,24,1.00
2023,03,30,07,25,1.00
2023,03,30,07,26,1.00
2023,03,30,07,27,1.10
2023,03,30,07,28,1.10
2023,03,30,07,29,1.10
2023,03,30,07,30,1.10
2023,03,30,07,31,1.10
2023,03,30,07,32,1.20
2023,03,30,07,33,1.20
2023,03,30,07,34,1.20
2023,03,30,07,35,1.20
2023,03,30,07,36,1.20
2023,03,30,07,37,1.20
2023,03,30,07,38,1.20
2023,03,30,07,39,1.20
2023,03,30,07,40,1.20
2023,03,30,07,41,1.20
2023,03,30,07,42,1.30
2023,03,30,07,43,1.30
2023,03,30,07,44,1.30
2023,03,30,07,45,1.30
2023,03,30,07,46,1.40
2023,03,30,07,47,1.40
2023,03,30,07,48,1.40
2023,03,30,07,49,1.50
2023,03,30,07,50,1.50
2023,03,30,07,51,1.60
2023,03,30,07,52,1.60
2023,03,30,07,53,1.70
2023,03,30,07,54,1.70
2023,03,30,07,55,1.80
2023,03,30,07,56,1.80
2023,03,30,07,57,1.90
2023,03,30,07,58,1.90
2023,03,30,07,59,2.00
2023,03,30,08,00,2.10
2023,03,30,08,01,2.20
2023,03,30,08,02,2.40
2023,03,30,08,03,2.50
2023,03,30,08,04,2.60
2023,03,30,08,05,2.70
2023,03,30,08,06,2.80
2023,03,30,08,07,2.90
2023,03,30,08,08,3.00
2023,03,30,08,09,3.10
2023,03,30,08,10,3.20
2023,03,30,08,11,3.30
2023,03,30,08,12,3.40
2023,03,30,08,13,3.40
2023,03,30,08,14,3.50
2023,03,30,08,15,3.60
2023,03,30,08,16,3.60
2023,03,30,08,17,3.70
2023,03,30,08,18,3.80
2023,03,30,08,19,3.80
2023,03,30,08,20,3.90
2023,03,30,08,21,4.00
2023,03,30,08,22,4.10
2023,03,30,08,23,4.10
2023,03,30,08,24,4.20
2023,03,30,08,25,4.20
2023,03,30,08,26,4.30
2023,03,30,08,27,4.40
2023,03,30,08,28,4.50
2023,03,30,08,29,4.50
2023,03,30,08,30,4.60
2023,03,30,08,31,4.70
2023,03,30,08,32,4.80
2023,03,30,08,33,4.80
2023,03,30,08,34,4.90
2023,03,30,08,35,5.00
2023,03,30,08,36,5.00
2023,03,30,08,37,5.10
2023,03,30,08,38,5.20
2023,03,30,08,39,5.20
2023,03,30,08,40,5.30
2023,03,30,08,41,5.40
2023,03,30,08,42,5.40
2023,03,30,08,43,5.50
2023,03,30,08,44,5.50
2023,03,30,08,45,5.60
2023,03,30,08,46,5.70
2023,03,30,08,47,5.70
2023,03,30,08,48,5.80
2023,03,30,08,49,5.80
2023,03,30,08,50,5.90
2023,03,30,08,51,6.00
2023,03,30,08,52,6.10
2023,03,30,08,53,6.10
2023,03,30,08,54,6.20
2023,03,30,08,55,6.20
2023,03,30,08,56,6.30
2023,03,30,08,57,6.30
2023,03,30,08,58,6.40
2023,03,30,08,59,6.50
2023,03,30,09,00,6.50
2023,03,30,09,01,6.60
2023,03,30,09,02,6.70
2023,03,30,09,03,6.70
2023,03,30,09,04,6.80
2023,03,30,09,05,6.80
2023,03,30,09,06,6.80
2023,03,30,09,07,6.90
2023,03,30,09,08,7.00
2023,03,30,09,09,7.00
2023,03,30,09,10,7.10
2023,03,30,09,11,7.20
2023,03,30,09,12,7.20
2023,03,30,09,13,7.30
2023,03,30,09,14,7.40
2023,03,30,09,15,7.40
2023,03,30,09,16,7.40
2023,03,30,09,17,7.50
2023,03,30,09,18,7.60
2023,03,30,09,19,7.70
2023,03,30,09,20,7.70
2023,03,30,09,21,7.80
2023,03,30,09,22,7.90
2023,03,30,09,23,8.00
2023,03,30,09,24,8.10
2023,03,30,09,25,8.20
2023,03,30,09,26,8.20
2023,03,30,09,27,8.30
2023,03,30,09,28,8.30
2023,03,30,09,29,8.40
2023,03,30,09,30,8.50
2023,03,30,09,31,8.60
2023,03,30,09,32,8.70
2023,03,30,09,33,8.80
2023,03,30,09,34,8.90
2023,03,30,09,35,9.00
2023,03,30,09,36,9.00
2023,03,30,09,37,9.10
2023,03,30,09,38,9.10
2023,03,30,09,39,9.10
2023,03,30,09,40,9.10
2023,03,30,09,41,9.10
2023,03,30,09,42,9.10
2023,03,30,09,43,9.10
2023,03,30,09,44,9.20
2023,03,30,09,45,9.20
2023,03,30,09,46,9.20
2023,03,30,09,47,9.20
2023,03,30,09,48,9.20
2023,03,30,09,49,9.30
2023,03,30,09,50,9.30
2023,03,30,09,51,9.30
2023,03,30,09,52,9.40
2023,03,30,09,53,9.40
2023,03,30,09,54,9.40
2023,03,30,09,55,9.40
2023,03,30,09,56,9.50
2023,03,30,09,57,9.40
2023,03,30,09,58,9.40
2023,03,30,09,59,9.40
2023,03,30,10,00,9.30
2023,03,30,10,01,9.30
2023,03,30,10,02,9.30
2023,03,30,10,03,9.20
2023,03,30,10,04,9.20
2023,03,30,10,05,9.20
2023,03,30,10,06,9.20
2023,03,30,10,07,9.20
2023,03,30,10,08,9.30
2023,03,30,10,09,9.30
2023,03,30,10,10,9.30
2023,03,30,10,11,9.30
2023,03,30,10,12,9.30
2023,03,30,10,13,9.40
2023,03,30,10,14,9.40
2023,03,30,10,15,9.40
2023,03,30,10,16,9.40
2023,03,30,10,17,9.50
2023,03,30,10,18,9.50
2023,03,30,10,19,9.50
2023,03,30,10,20,9.60
2023,03,30,10,21,9.70
2023,03,30,10,22,9.80
2023,03,30,10,23,9.80
2023,03,30,10,24,9.90
2023,03,30,10,25,9.90
2023,03,30,10,26,10.00
2023,03,30,10,27,10.10
2023,03,30,10,28,10.20
2023,03,30,10,29,10.20
2023,03,30,10,30,10.30
2023,03,30,10,31,10.40
2023,03,30,10,32,10.50
2023,03,30,10,33,10.60
2023,03,30,10,34,10.70
2023,03,30,10,35,10.80
2023,03,30,10,36,10.90
2023,03,30,10,37,10.90
2023,03,30,10,38,11.00
2023,03,30,10,39,11.00
2023,03,30,10,40,11.10
2023,03,30,10,41,11.10
2023,03,30,10,42,11.20
2023,03,30,10,43,11.30
2023,03,30,10,44,11.30
2023,03,30,10,45,11.40
2023,03,30,10,46,11.40
2023,03,30,10,47,11.30
2023,03,30,10,48,11.20
2023,03,30,10,49,11.10
2023,03,30,10,50,11.10
2023,03,30,10,51,11.00
2023,03,30,10,52,10.90
2023,03,30,10,53,10.90
2023,03,30,10,54,10.90
2023,03,30,10,55,10.90
2023,03,30,10,56,10.90
2023,03,30,10,57,11.00
2023,03,30,10,58,11.00
2023,03,30,10,59,11.10
2023,03,30,11,00,11.20
2023,03,30,11,01,11.30
2023,03,30,11,02,11.40
2023,03,30,11,03,11.60
2023,03,30,11,04,11.70
2023,03,30,11,05,11.80
2023,03,30,11,06,11.90
2023,03,30,11,07,11.90
2023,03,30,11,08,11.90
2023,03,30,11,09,11.90
2023,03,30,11,10,11.90
2023,03,30,11,11,11.90
2023,03,30,11,12,11.90
2023,03,30,11,13,12.00
2023,03,30,11,14,12.00
2023,03,30,11,15,12.10
2023,03,30,11,16,12.20
2023,03,30,11,17,12.20
2023,03,30,11,18,12.30
2023,03,30,11,19,12.40
2023,03,30,11,20,12.50
2023,03,30,11,21,12.60
2023,03,30,11,22,12.60
2023,03,30,11,23,12.70
2023,03,30,11,24,12.70
2023,03,30,11,25,12.70
2023,03,30,11,26,12.70
2023,03,30,11,27,12.80
2023,03,30,11,28,12.80
2023,03,30,11,29,12.70
2023,03,30,11,30,12.80
2023,03,30,11,31,12.80
2023,03,30,11,32,12.80
2023,03,30,11,33,12.80
2023,03,30,11,34,12.80
2023,03,30,11,35,12.90
2023,03,30,11,36,12.90
2023,03,30,11,37,13.00
2023,03,30,11,38,13.00
2023,03,30,11,39,13.10
2023,03,30,11,40,13.10
2023,03,30,11,41,13.20
2023,03,30,11,42,13.20
2023,03,30,11,43,13.20
2023,03,30,11,44,13.20
2023,03,30,11,45,13.30
2023,03,30,11,46,13.30
2023,03,30,11,47,13.40
2023,03,30,11,48,13.40
2023,03,30,11,49,13.40
2023,03,30,11,50,13.40
2023,03,30,11,51,13.40
2023,03,30,11,52,13.40
2023,03,30,11,53,13.40
2023,03,30,11,54,13.40
2023,03,30,11,55,13.40
2023,03,30,11,56,13.30
2023,03,30,11,57,13.30
2023,03,30,11,58,13.20
2023,03,30,11,59,13.20
2023,03,30,12,00,13.10
2023,03,30,12,01,13.10
2023,03,30,12,02,13.00
2023,03,30,12,03,13.00
2023,03,30,12,04,12.90
2023,03,30,12,05,12.90
2023,03,30,12,06,12.90
2023,03,30,12,07,12.80
2023,03,30,12,08,12.80
2023,03,30,12,09,12.80
2023,03,30,12,10,12.80
2023,03,30,12,11,12.80
2023,03,30,12,12,12.80
2023,03,30,12,13,12.80
2023,03,30,12,14,12.80
2023,03,30,12,15,12.80
2023,03,30,12,16,12.80
2023,03,30,12,17,12.80
2023,03,30,12,18,12.80
2023,03,30,12,19,12.80
2023,03,30,12,20,12.80
2023,03,30,12,21,12.90
2023,03,30,12,22,12.90
2023,03,30,12,23,12.90
2023,03,30,12,24,12.90
2023,03,30,12,25,13.00
2023,03,30,12,26,13.00
2023,03,30,12,27,13.00
2023,03,30,12,28,12.90
2023,03,30,12,29,12.90
2023,03,30,12,30,12.80
2023,03,30,12,31,12.80
2023,03,30,12,32,12.80
2023,03,30,12,33,12.80
2023,03,30,12,34,12.80
2023,03,30,12,35,12.90
2023,03,30,12,36,12.90
2023,03,30,12,37,13.00
2023,03,30,12,38,13.00
2023,03,30,12,39,13.10
2023,03,30,12,40,13.10
2023,03,30,12,41,13.10
2023,03,30,12,42,13.20
2023,03,30,12,43,13.20
2023,03,30,12,44,13.30
2023,03,30,12,45,13.40
2023,03,30,12,46,13.40
2023,03,30,12,47,13.60
2023,03,30,12,48,13.60
2023,03,30,12,49,13.70
2023,03,30,12,50,13.70
2023,03,30,12,51,13.80
2023,03,30,12,52,13.80
2023,03,30,12,53,13.80
2023,03,30,12,54,13.80
2023,03,30,12,55,13.80
2023,03,30,12,56,13.80
2023,03,30,12,57,13.80
2023,03,30,12,58,13.80
2023,03,30,12,59,13.80
2023,03,30,13,00,13.70
2023,03,30,13,01,13.70
2023,03,30,13,02,13.70
2023,03,30,13,03,13.70
2023,03,30,13,04,13.60
2023,03,30,13,05,13.60
2023,03,30,13,06,13.60
2023,03,30,13,07,13.50
2023,03,30,13,08,13.60
2023,03,30,13,09,13.50
2023,03,30,13,10,13.50
2023,03,30,13,11,13.50
2023,03,30,13,12,13.50
2023,03,30,13,13,13.50
2023,03,30,13,14,13.50
2023,03,30,13,15,13.40
2023,03,30,13,16,13.30
2023,03,30,13,17,13.20
2023,03,30,13,18,13.10
2023,03,30,13,19,13.10
2023,03,30,13,20,13.00
2023,03,30,13,21,13.10
2023,03,30,13,22,13.10
2023,03,30,13,23,13.10
2023,03,30,13,24,13.10
2023,03,30,13,25,13.00
2023,03,30,13,26,12.90
2023,03,30,13,27,12.90
2023,03,30,13,28,12.80
2023,03,30,13,29,12.80
2023,03,30,13,30,12.80
2023,03,30,13,31,12.80
2023,03,30,13,32,12.80
2023,03,30,13,33,12.70
2023,03,30,13,34,12.60
2023,03,30,13,35,12.50
2023,03,30,13,36,12.40
2023,03,30,13,37,12.40
2023,03,30,13,38,12.40
2023,03,30,13,39,12.40
2023,03,30,13,40,12.40
2023,03,30,13,41,12.50
2023,03,30,13,42,12.50
2023,03,30,13,43,12.60
2023,03,30,13,44,12.70
2023,03,30,13,45,12.70
2023,03,30,13,46,12.80
2023,03,30,13,47,12.70
2023,03,30,13,48,12.70
2023,03,30,13,49,12.70
2023,03,30,13,50,12.70
2023,03,30,13,51,12.60
2023,03,30,13,52,12.60
2023,03,30,13,53,12.50
2023,03,30,13,54,12.50
2023,03,30,13,55,12.50
2023,03,30,13,56,12.50
2023,03,30,13,57,12.50
2023,03,30,13,58,12.60
2023,03,30,13,59,12.60
2023,03,30,14,00,12.50
2023,03,30,14,01,12.50
2023,03,30,14,02,12.50
2023,03,30,14,03,12.50
2023,03,30,14,04,12.50
2023,03,30,14,05,12.60
2023,03,30,14,06,12.60
2023,03,30,14,07,12.70
2023,03,30,14,08,12.70
2023,03,30,14,09,12.70
2023,03,30,14,10,12.70
2023,03,30,14,11,12.70
2023,03,30,14,12,12.70
2023,03,30,14,13,12.70
2023,03,30,14,14,12.60
2023,03,30,14,15,12.60
2023,03,30,14,16,12.60
2023,03,30,14,17,12.60
2023,03,30,14,18,12.60
2023,03,30,14,19,12.60
2023,03,30,14,20,12.60
2023,03,30,14,21,12.60
2023,03,30,14,22,12.60
2023,03,30,14,23,12.70
2023,03,30,14,24,12.70
2023,03,30,14,25,12.80
2023,03,30,14,26,12.80
2023,03,30,14,27,12.90
2023,03,30,14,28,12.90
2023,03,30,14,29,13.00
2023,03,30,14,30,13.00
2023,03,30,14,31,13.00
2023,03,30,14,32,13.00
2023,03,30,14,33,12.90
2023,03,30,14,34,12.90
2023,03,30,14,35,13.00
2023,03,30,14,36,13.00
2023,03,30,14,37,13.00
2023,03,30,14,38,13.00
2023,03,30,14,39,12.90
2023,03,30,14,40,12.90
2023,03,30,14,41,12.90
2023,03,30,14,42,13.00
2023,03,30,14,43,13.10
2023,03,30,14,44,13.10
2023,03,30,14,45,13.20
2023,03,30,14,46,13.30
2023,03,30,14,47,13.30
2023,03,30,14,48,13.40
2023,03,30,14,49,13.40
2023,03,30,14,50,13.40
2023,03,30,14,51,13.40
2023,03,30,14,52,13.40
2023,03,30,14,53,13.40
2023,03,30,14,54,13.50
2023,03,30,14,55,13.50
2023,03,30,14,56,13.50
2023,03,30,14,57,13.50
2023,03,30,14,58,13.50
2023,03,30,14,59,13.50
2023,03,30,15,00,13.40
2023,03,30,15,01,13.40
2023,03,30,15,02,13.50
2023,03,30,15,03,13.50
2023,03,30,15,04,13.60
2023,03,30,15,05,13.60
2023,03,30,15,06,13.60
2023,03,30,15,07,13.60
2023,03,30,15,08,13.50
2023,03,30,15,09,13.50
2023,03,30,15,10,13.40
2023,03,30,15,11,13.40
2023,03,30,15,12,13.40
2023,03,30,15,13,13.40
2023,03,30,15,14,13.40
2023,03,30,15,15,13.40
2023,03,30,15,16,13.40
2023,03,30,15,17,13.50
2023,03,30,15,18,13.50
2023,03,30,15,19,13.50
2023,03,30,15,20,13.40
2023,03,30,15,21,13.50
2023,03,30,15,22,13.40
2023,03,30,15,23,13.40
2023,03,30,15,24,13.40
2023,03,30,15,25,13.30
2023,03,30,15,26,13.40
2023,03,30,15,27,13.40
2023,03,30,15,28,13.40
2023,03,30,15,29,13.50
2023,03,30,15,30,13.50
2023,03,30,15,31,13.60
2023,03,30,15,32,13.60
2023,03,30,15,33,13.70
2023,03,30,15,34,13.70
2023,03,30,15,35,13.70
2023,03,30,15,36,13.70
2023,03,30,15,37,13.70
2023,03,30,15,38,13.60
2023,03,30,15,39,13.60
2023,03,30,15,40,13.60
2023,03,30,15,41,13.50
2023,03,30,15,42,13.40
2023,03,30,15,43,13.30
2023,03,30,15,44,13.30
2023,03,30,15,45,13.30
2023,03,30,15,46,13.40
2023,03,30,15,47,13.50
2023,03,30,15,48,13.50
2023,03,30,15,49,13.60
2023,03,30,15,50,13.70
2023,03,30,15,51,13.70
2023,03,30,15,52,13.80
2023,03,30,15,53,13.80
2023,03,30,15,54,13.80
2023,03,30,15,55,13.80
2023,03,30,15,56,13.70
2023,03,30,15,57,13.70
2023,03,30,15,58,13.70
2023,03,30,15,59,13.70
2023,03,30,16,00,13.80
2023,03,30,16,01,13.80
2023,03,30,16,02,13.80
2023,03,30,16,03,13.80
2023,03,30,16,04,13.80
2023,03,30,16,05,13.80
2023,03,30,16,06,13.80
2023,03,30,16,07,13.80
2023,03,30,16,08,13.80
2023,03,30,16,09,13.70
2023,03,30,16,10,13.60
2023,03,30,16,11,13.50
2023,03,30,16,12,13.40
2023,03,30,16,13,13.30
2023,03,30,16,14,13.30
2023,03,30,16,15,13.20
2023,03,30,16,16,13.20
2023,03,30,16,17,13.20
2023,03,30,16,18,13.10
2023,03,30,16,19,13.10
2023,03,30,16,20,13.20
2023,03,30,16,21,13.20
2023,03,30,16,22,13.20
2023,03,30,16,23,13.20
2023,03,30,16,24,13.30
2023,03,30,16,25,13.30
2023,03,30,16,26,13.30
2023,03,30,16,27,13.20
2023,03,30,16,28,13.20
2023,03,30,16,29,13.20
2023,03,30,16,30,13.10
2023,03,30,16,31,13.10
2023,03,30,16,32,13.10
2023,03,30,16,33,13.10
2023,03,30,16,34,13.10
2023,03,30,16,35,13.00
2023,03,30,16,36,13.00
2023,03,30,16,37,13.00
2023,03,30,16,38,13.00
2023,03,30,16,39,12.90
2023,03,30,16,40,12.90
2023,03,30,16,41,12.90
2023,03,30,16,42,12.90
2023,03,30,16,43,12.90
2023,03,30,16,44,12.90
2023,03,30,16,45,12.90
2023,03,30,16,46,12.90
2023,03,30,16,47,12.90
2023,03,30,16,48,12.90
2023,03,30,16,49,12.90
2023,03,30,16,50,12.90
2023,03,30,16,51,13.00
2023,03,30,16,52,13.00
2023,03,30,16,53,13.00
2023,03,30,16,54,13.00
2023,03,30,16,55,13.00
2023,03,30,16,56,12.90
2023,03,30,16,57,12.80
2023,03,30,16,58,12.80
2023,03,30,16,59,12.80
2023,03,30,17,00,12.80
2023,03,30,17,01,12.70
2023,03,30,17,02,12.70
2023,03,30,17,03,12.70
2023,03,30,17,04,12.70
2023,03,30,17,05,12.70
2023,03,30,17,06,12.80
2023,03,30,17,07,12.80
2023,03,30,17,08,12.80
2023,03,30,17,09,12.80
2023,03,30,17,10,12.80
2023,03,30,17,11,12.80
2023,03,30,17,12,12.70
2023,03,30,17,13,12.70
2023,03,30,17,14,12.60
2023,03,30,17,15,12.60
2023,03,30,17,16,12.50
2023,03,30,17,17,12.50
2023,03,30,17,18,12.50
2023,03,30,17,19,12.50
2023,03,30,17,20,12.50
2023,03,30,17,21,12.40
2023,03,30,17,22,12.40
2023,03,30,17,23,12.40
2023,03,30,17,24,12.40
2023,03,30,17,25,12.40
2023,03,30,17,26,12.40
2023,03,30,17,27,12.40
2023,03,30,17,28,12.40
2023,03,30,17,29,12.30
2023,03,30,17,30,12.20
2023,03,30,17,31,12.20
2023,03,30,17,32,12.10
2023,03,30,17,33,12.00
2023,03,30,17,34,12.00
2023,03,30,17,35,11.90
2023,03,30,17,36,11.90
2023,03,30,17,37,11.90
2023,03,30,17,38,11.90
2023,03,30,17,39,11.80
2023,03,30,17,40,11.70
2023,03,30,17,41,11.60
2023,03,30,17,42,11.60
2023,03,30,17,43,11.50
2023,03,30,17,44,11.40
2023,03,30,17,45,11.40
2023,03,30,17,46,11.40